Preview of NWS' New Version of Forecast
This preview is not operational and should not be used for support decisions.
Latest weather observations around

Joplin, Joplin Regional Airport (KJLN)

Using English Units (Switch to International System of Units)
Date/ Time (CST) Wind (mph) Vis. (mi) Weather Sky Cond. Temp (°F) Rel. Humidity Wind Chill (°F) Heat Index (°F) Pressure Precip. (in)
Air Dwpt 6 hour Altimeter (inHg) Sea level (inHg) 1 hr 3 hr 6 hr
Max Min
Feb 21 15:53 E 9 10 Clear CLR 46 24     42% 41   30.1 30.11      
Feb 21 14:53 ESE 13 10 Clear CLR 46 25     43% 40   30.12 30.13      
Feb 21 13:53 ESE 9 10 Clear CLR 46 26     45% 41   30.13 30.14      
Feb 21 12:53 ESE 9 10 Clear CLR 45 25     45% 40   30.12 30.13      
Feb 21 11:53 ESE 13 10 Clear CLR 44 19     36% 38   30.14 30.16      
Feb 21 10:53 ESE 14 10 Clear CLR 44 23     43% 37   30.14 30.15      
Feb 21 09:53 E 9 10 Clear CLR 42 23     46% 37   30.15 30.17      
Feb 21 08:53 E 11 10 Clear CLR 39 25     57% 32   30.14 30.16      
Feb 21 07:53 E 8 8 Clear CLR 34 27     75% 27   30.13 30.15      
Feb 21 06:53 ESE 8 8 Clear CLR 32 29     88% 25   30.13 30.15      
Feb 21 05:53 ESE 6 7 Fog/Mist CLR 31 29     92% 25   30.13 30.14      
Feb 21 04:53 ESE 3 4 Fog/Mist CLR 31 30     96% 28   30.09 30.11      
Feb 21 03:53 ENE 5 3 Clear   31 29     92% 26   30.07 30.08      
Feb 21 02:53 ESE 3 4 Fog/Mist CLR 30 29     96% 27   30.09 30.11      
Feb 21 01:53 ENE 6 3 Fog/Mist CLR 30 28     92% 24   30.08 30.1      
Feb 21 01:01 ENE 5 4 Fog/Mist CLR 29 27     92% 24   30.09        
Feb 21 00:53 Calm 2.5 Fog/Mist CLR 27 26     96%     30.09 30.11      
Feb 21 00:37 Calm 2.5 Fog/Mist CLR 28 28     100%     30.08        
Feb 21 00:27 Calm 3 Fog/Mist CLR 30 29     96%     30.09        
Feb 20 23:53 E 3 2.5 Fog/Mist CLR 27 27     100% 23   30.09 30.11      
Feb 20 23:11 Calm 2.5 Fog/Mist CLR 28 27     96%     30.07        
Feb 20 22:53 Calm 3 Fog/Mist CLR 30 29     96%     30.07 30.09      
Feb 20 21:53 Calm 5 Fog/Mist CLR 32 30     92%     30.05 30.07      
Feb 20 20:53 NNW 3 7 Clear   34 31     88% 31   30.02 30.03      
Feb 20 19:53 Calm 7 Clear CLR 34 32     92%     30 30.01      
Feb 20 18:53 NNW 6 8 Clear CLR 33 30     88% 28   29.96 29.98      
Feb 20 17:53 WNW 6 8 Mostly Clear FEW035 37 32     82% 32   29.93 29.94      
Feb 20 16:53 W 9 10 Partly Cloudy SCT031 42 32     67% 37   29.91 29.92      
Feb 20 15:53 W 10 10 Cloudy BKN024 OVC035 42 33     70% 36   29.89 29.9      
Feb 20 14:53 SW 7 10 Cloudy BKN018 OVC028 40 31     70% 35   29.88 29.9      
Feb 20 13:53   10 Mostly Cloudy BKN019 38 31     76%     29.88 29.89      
Feb 20 13:00 SW 14 10 Cloudy OVC020 37 31     78% 28   29.88        
Feb 20 12:53 SW 10 10 Cloudy OVC012 37 31     78% 30   29.88 29.89      
Feb 20 11:53 SW 15 9 Cloudy OVC012 36 32     85% 27   29.88 29.9      
Feb 20 10:53 WSW 13 10 Cloudy OVC010 34 32     92% 25   29.87 29.89      
Feb 20 09:53 WSW 16 10 Cloudy OVC007 35 32     88% 25   29.86 29.87      
Feb 20 09:33 WSW 15 9 Cloudy OVC009 35 33     92% 26   29.85        
Feb 20 08:53 WSW 14 6 Fog/Mist OVC004 34 33     96% 25   29.84 29.86      
Feb 20 07:53 SW 13 8 Cloudy OVC004 34 33     96% 25   29.83 29.84      
Feb 20 06:53 SW 11 4 Fog/Mist OVC004 34 33     96% 26   29.82 29.83      
Feb 20 05:53 SW 11 6 Fog/Mist OVC004 34 33     96% 26   29.81 29.83      
Feb 20 05:16 SW 8 4 Fog/Mist OVC004 34 33     96% 27   29.82        
Feb 20 05:04 SW 9 2 Fog/Mist OVC004 34 33     96% 27   29.81        
Feb 20 04:53 SSW 8 1.75 Fog/Mist OVC004 34 34     100% 27   29.81 29.83      
Feb 20 04:37 SW 9 1.5 Fog/Mist OVC004 34 33     96% 27   29.82        
Feb 20 04:23 SSW 8 2.5 Fog/Mist OVC004 34 33     96% 27   29.82        
Feb 20 03:53 S 7 4 Fog/Mist OVC006 34 33     96% 28   29.83 29.84      
Feb 20 02:53 S 6 9 Cloudy BKN007 OVC013 34 33     96% 29   29.83 29.84      
Feb 20 02:19 ESE 5 10 Cloudy BKN006 OVC017 33 33     100% 29   29.83        
Feb 20 02:00 ESE 5 10 Cloudy SCT007 OVC017 33 33     100% 29   29.84        
Feb 20 01:53 SE 7 10 Cloudy BKN006 OVC017 33 32     96% 27   29.84 29.85      
Feb 20 01:33 ESE 5 9 Cloudy BKN006 BKN016 OVC032 33 33     100% 29   29.85        
Feb 20 01:26 ESE 5 7 Cloudy SCT006 SCT009 OVC032 33 33     100% 29   29.86        
Feb 20 01:04 ESE 6 3 Fog/Mist FEW005 BKN014 OVC037 33 32     96% 28   29.86        
Feb 20 00:53 SE 6 3 Fog/Mist SCT011 BKN017 OVC022 33 32     96% 28   29.88 29.89      
Feb 20 00:50 SE 5 3 Fog/Mist SCT011 OVC019 34 32     93% 29   29.88        
Feb 20 00:37 SE 5 2.5 Fog/Mist FEW010 OVC020 34 32     92% 30   29.88        
Feb 19 23:53 ESE 3 10 Cloudy OVC024 34 33     96% 31   29.9 29.91     0
Feb 19 23:39 E 7 10 Cloudy SCT006 OVC026 34 33     96% 28   29.89        
Feb 19 23:01 E 6 3 Fog/Mist OVC005 33 32     96% 28   29.9        
Feb 19 22:53 ENE 6 2.5 Fog/Mist OVC003 33 32     96% 28   29.9 29.92 0    
Feb 19 22:48 ENE 7 2.5 Fog/Mist OVC003 34 32     93% 28   29.91   0    
Feb 19 22:19 ENE 6 1.25 Clear   32 32     100% 26   29.95   0    
Feb 19 21:53 N 3 1 Clear   32 31     96% 29   29.96 29.98 0    
Feb 19 21:40 N 3 1 Unknown Precipitation and Fog/Mist OVC004 32 31     96% 29   29.97   0    
Feb 19 21:17 Calm 1.5 Light Rain and Fog/Mist OVC006 33 33     100%     29.97   0    
Feb 19 21:01 ENE 3 2 Unknown Precipitation and Fog/Mist OVC006 33 33     100% 30   29.96   0    
Feb 19 20:53 Calm 1.5 Light Freezing Rain and Fog/Mist OVC005 32 32     100%     29.96 29.98 0 0  
Feb 19 19:53 ENE 6 1.75 Light Freezing Rain and Fog/Mist BKN005 OVC015 32 31     96% 26   29.98 30 0    
Feb 19 19:45 ENE 8 1.5 Light Freezing Rain and Fog/Mist BKN007 OVC015 32 31     96% 25   29.97   0    
Feb 19 19:39 NE 9 1.75 Unknown Precipitation and Fog/Mist SCT006 BKN012 OVC018 32 31     96% 24   29.97   0    
Feb 19 19:31 NE 8 2.5 Light Rain and Fog/Mist FEW009 OVC018 32 31     96% 25   29.98   0    
Feb 19 18:53 ENE 8 4 Light Rain and Fog/Mist OVC018 33 30     88% 26   30.01 30.03 0    
Feb 19 17:53 ENE 8 5 Rain and Fog/Mist OVC027 33 30     88% 26   30.02 30.04 0   0
Feb 19 17:19 E 7 4 Rain OVC029 34 28     79% 28   30.06   0    
Feb 19 16:53 E 7 5 Light Rain OVC033 35 27     72% 29   30.07 30.09 0    
Feb 19 15:53 E 9 10 Light Rain SCT060 OVC080 39 22     50% 33   30.07 30.09 0    
Feb 19 14:53 E 9 10 Cloudy OVC100 39 22     50% 33   30.15 30.17      
Feb 19 13:53 E 15 10 Clear CLR 38 21     50% 29   30.13 30.15      
Feb 19 12:53 E 16 10 Clear CLR 38 20     48% 29   30.19 30.22      
Feb 19 11:53 E 15 10 Clear CLR 40 22     48% 32   30.25 30.27      
Feb 19 10:53 E 15 10 Clear CLR 37 21     52% 28   30.31 30.33      
Feb 19 09:53 E 13 10 Clear CLR 33 21     61% 24   30.34 30.37      
Feb 19 08:53 E 13 9 Clear CLR 30 21     69% 20   30.36 30.39      
Feb 19 07:53 E 13 9 Mostly Clear FEW110 28 21     75% 17   30.38 30.41      
Feb 19 06:53 ENE 8 10 Cloudy OVC110 27 20     75% 19   30.39 30.41      
Feb 19 05:53 ENE 5 9 Clear   26 19     74% 20   30.39 30.42      
Feb 19 04:53 ENE 6 10 Clear CLR 26 19     74% 19   30.4 30.42      
Feb 19 03:53 ENE 9 10 Mostly Cloudy BKN120 26 19     74% 17   30.41 30.44      
Feb 19 02:53 E 9 10 Clear CLR 26 19     74% 17   30.44 30.46      
Feb 19 01:53 ENE 10 10 Cloudy OVC110 26 19     74% 16   30.45 30.47      
Feb 19 00:53 ENE 8 10 Cloudy OVC110 26 19     74% 18   30.47 30.49      
Feb 18 23:53 NE 7 10 Cloudy OVC110 26 19     74% 18   30.49 30.52      
Feb 18 22:53 NE 8 10 Cloudy OVC100 26 18     71% 18   30.48 30.51      
Feb 18 21:53 NE 9 10 Cloudy OVC120 26 18     71% 17   30.48 30.51      
Feb 18 20:53 NNE 9 9 Mostly Cloudy BKN120 26 18     71% 17   30.48 30.51      
Feb 18 19:53 NNE 9 9 Cloudy OVC120 27 19     72% 18   30.46 30.49      
Feb 18 18:53 N 8 10 Mostly Clear FEW120 27 18     68% 19   30.46 30.49      
Feb 18 17:53 NE 8 10 Clear CLR 29 18     63% 21   30.43 30.47      
Feb 18 16:53 NNE 10 10 Clear CLR 31 19     61% 22   30.43 30.46      
Feb 18 15:53 NNE 10 10 Mostly Clear FEW100 33 19     56% 25   30.44 30.47      
May 15 06:53 NNW 6 10 Clear CLR 61 60     97%     29.92 29.89     1
May 14 05:53 S 10 10 Clear CLR 69 63     81%     29.95 29.92      
May 13 10:53   10 Clear CLR 80 68     67%   83 30.03 30      
May 12 18:53 S 17 10 Clear CLR 81 65     58%   83 29.91 29.88      
May 12 08:53 S 11 10 Clear CLR 74 64     71%   74 29.96 29.93      
May 12 00:53 SSE 8 10 Clear CLR 70 61     73%     29.89 29.86      
Jun 12 01:53 S 9 10 Clear CLR 73 65     76%   74 29.92 29.88      
Jun 11 21:53 S 10 10 Clear CLR 79 65     62%   80 29.9 29.86      
Jun 11 11:53   10 Partly Cloudy SCT032 84 71     65%   89 29.94 29.9      
Jun 11 10:53   10 Clear CLR 83 70     65%   87 29.93 29.89      
Jun 10 19:53 S 15 10 Clear CLR 81 67     62%   83 29.83 29.79      
Jun 10 17:53   10 Clear CLR 85 68     57%   88 29.82 29.79      
Jun 10 11:53   10 Clear CLR 82 67     60%   85 29.9 29.86      
Jun 09 14:53 S 13 10 Partly Cloudy SCT055 80 61     52%   81 29.91 29.89      
Jun 09 00:53 SE 3 10 Clear CLR 60 55     83%     29.94 29.91      
Jun 08 23:53 S 3 10 Clear   62 56     80%     29.94 29.92      
Jun 08 12:53 WNW 5 10 Clear CLR 79 53     41%   78 30.05 30.03      
Jun 08 06:53 Calm 10 Clear CLR 56 53     90%     30.06 30.04      
Jun 07 21:53 Calm 10 Clear CLR 64 56     75%     30.05 30.02      
Jun 07 14:53 NNE 9 10 Clear CLR 81 52     37%   80 30.06 30.03      
Jun 07 11:53 E 9 10 Mostly Clear FEW060 79 49     35%   78 30.09 30.07      
Jun 06 11:53 N 5 10 Clear CLR 82 64     55%   84 29.96 29.93      
Jun 06 10:53 N 5 10 Clear CLR 79 66     65%   80 29.96 29.92      
Notice The following observation data may not be complete
Jun 06 04:02   2 Fog/Mist CLR          %              
Jun 05 19:53 Calm 10 Mostly Cloudy BKN075 84 70     63%   88 29.83 29.79